Flag Weather past 2 weeks in Phnom Penh, Cambodia

Now
91 °F

Scattered clouds.


Feels Like: 100 °F
Forecast: 77 / 92 °F
Wind: 6 mph from Northeast

Location: Phnom-Penh / Pochentong

Current Time: Nov 28, 2014 at 4:08:04 PM

Latest Report: Nov 28, 2014 at 3:30 PM


Visibility: N/A

Pressure: 29.68 "Hg

Humidity: 56%

Dew point: 73 °F

Location of Phnom PenhLocation

Historic Weather in Phnom Penh — Graph

°F

Phnom Penh temperature yesterday

Maximum temperature yesterday: 91 °F (at 1:00 PM)
Minimum temperature yesterday: 75 °F (at 12:00 AM)
Average temperature yesterday: 85 °F

Past Weeks' High & Low Weather Summary

 TemperatureHumidityPressure
High95 °F (Nov 25, 2:00 PM)100% (Nov 26, 11:30 PM)29.95 "Hg (Nov 26, 11:30 PM)
Low75 °F (Nov 19, 7:00 AM)46% (Nov 17, 2:00 PM)29.65 "Hg (Nov 26, 2:30 PM)
Average85 °F69%29.81 "Hg
* Reported Nov 13 3:00 PM — Nov 28 3:00 PM, Phnom Penh, Weather by CustomWeather, © 2014

Note: Actual official high and low records may vary slightly from our data, if they occured in-between our weather recording intervals... More about our weather records

Advertising

Phnom Penh weather history for previous 24 hours

 ConditionsComfort  
Time TempWeatherWind HumidityBarometerVisibility
3:00 PM
Nov 28
93 °FScattered clouds.8 mph53%29.68 "HgN/A
2:30 PM91 °FScattered clouds.6 mph56%29.71 "HgN/A
2:00 PM91 °FScattered clouds.7 mph56%29.71 "HgN/A
1:30 PM91 °FScattered clouds.7 mph56%29.71 "HgN/A
1:00 PM91 °FScattered clouds.7 mph56%29.74 "HgN/A
12:30 PM90 °FScattered clouds.111 mph63%29.74 "HgN/A
12:00 PM90 °FScattered clouds.7 mph67%29.77 "HgN/A
11:30 AM90 °FScattered clouds.9 mph71%29.80 "HgN/A
11:00 AM88 °FScattered clouds.8 mph70%29.80 "HgN/A
10:30 AM88 °FScattered clouds.9 mph70%29.83 "HgN/A
10:00 AM88 °FScattered clouds.9 mph70%29.83 "HgN/A
9:30 AM86 °FScattered clouds.9 mph75%29.83 "HgN/A
9:00 AM86 °FScattered clouds.7 mph75%29.83 "HgN/A
8:30 AM84 °FScattered clouds.6 mph79%29.83 "HgN/A
8:00 AM82 °FScattered clouds.3 mph84%29.80 "Hg6 mi
7:30 AM82 °FScattered clouds.2 mph84%29.80 "Hg6 mi
7:00 AM81 °FScattered clouds.1 mph89%29.80 "Hg6 mi
6:30 AM79 °FPartly sunny.1 mph94%29.80 "Hg6 mi
6:00 AM79 °FPassing clouds.2 mph94%29.77 "Hg6 mi
1:00 AM81 °FPassing clouds.2 mph89%29.77 "Hg6 mi
12:30 AM81 °FPassing clouds.2 mph89%29.77 "Hg6 mi
12:00 AM82 °FPassing clouds.1 mph89%29.77 "Hg6 mi
11:30 PM
Nov 27
82 °FPassing clouds.1 mph84%29.77 "Hg6 mi
11:00 PM82 °FPassing clouds.1 mph84%29.77 "Hg6 mi
10:30 PM82 °FPassing clouds.1 mph84%29.77 "Hg6 mi
10:00 PM82 °FPassing clouds.3 mph84%29.77 "Hg6 mi
9:30 PM84 °FPassing clouds.2 mph79%29.77 "Hg6 mi
9:00 PM84 °FPassing clouds.1 mph79%29.77 "Hg6 mi
8:30 PM86 °FPassing clouds.1 mph75%29.77 "Hg6 mi
8:00 PM86 °FPassing clouds.No wind75%29.77 "Hg6 mi
7:30 PM86 °FPassing clouds.1 mph70%29.77 "Hg6 mi
7:00 PM88 °FPassing clouds.1 mph66%29.77 "Hg6 mi
6:30 PM88 °FPassing clouds.No wind66%29.77 "HgN/A
6:00 PM88 °FPassing clouds.2 mph62%29.74 "HgN/A
5:30 PM88 °FPassing clouds.2 mph62%29.74 "HgN/A
5:00 PM90 °FPassing clouds.3 mph59%29.74 "HgN/A
4:30 PM90 °FPassing clouds.35 mph63%29.71 "HgN/A
4:00 PM91 °FScattered clouds.3 mph59%29.71 "HgN/A
Weather by CustomWeather, © 2014

See weather overviewHow to use our weather pages